450  
ASUS45 KBOI 230310  
RWRID  
 
IDAHO REGIONAL WEATHER ROUNDUP  
NATIONAL WEATHER SERVICE BOISE ID  
900 PM MDT FRI SEP 22 2017  
 
NOTE: "FAIR" INDICATES FEW OR NO CLOUDS BELOW 12000 FEET  
WITH NO SIGNIFICANT WEATHER AND/OR S TO VISIBILITY
 
 
IDZ012-014-230400-  
SOUTHWEST IDAHO  
 
 
CITY SKY/WX TMP DP RH WIND PRES REMARKS
 
BOISE CLEAR 47 40 76 CALM 29.99R  
CALDWELL CLEAR 47 42 83 NE6 29.99R  
MOUNTAIN HOME CLEAR 43 38 81 W7 29.98R  

 
 
IDZ016-017-230400-  
SOUTHCENTRAL IDAHO  
 
 
CITY SKY/WX TMP DP RH WIND PRES REMARKS
 
BURLEY CLEAR 42 34 73 W3 29.98R  
JEROME CLEAR 41 37 86 SW6 29.99R  
TWIN FALLS CLEAR 40 36 86 SW6 30.00R  

 
 
IDZ019>023-230400-  
SOUTHEAST IDAHO  
 
 
CITY SKY/WX TMP DP RH WIND PRES REMARKS
 
IDAHO FALLS CLOUDY 44 35 70 S7 30.00R  
POCATELLO CLOUDY 43 34 70 S7 30.00R  
REXBURG CLOUDY 42 35 76 S8 29.99R  

 
 
IDZ006-010-011-018-031-032-230400-  
CENTRAL IDAHO MOUNTAINS  
 
 
CITY SKY/WX TMP DP RH WIND PRES REMARKS
 
MCCALL CLOUDY 41 32 70 N8 29.97R  
HAILEY PTCLDY 39 34 81 SE7 29.98R WCI 34  
STANLEY N/A 32 30 92 CALM 29.97R  
SALMON CLOUDY 44 37 76 S8 29.97R  
CHALLIS CLOUDY 41 35 79 NW7 29.94R  

 
 
IDZ002-004-006-007-026-230400-  
NORTHERN IDAHO  
 
 
CITY SKY/WX TMP DP RH WIND PRES REMARKS
 
LEWISTON MOCLDY 54 43 66 E15 30.01R  
LOWELL N/A 47 42 83 CALM 30.04R  
COEUR D'ALENE CLOUDY 50 38 63 E5 30.02R  
MULLAN PASS MOCLDY 32 29 88 SE7 30.01R WCI 26  

 
 
 
CLICK HERE TO GO TO PREVIOUS BULLETINS.

The Nexlab ID Page Main Text Page